contact:dominique.lefevre@mio.osupytheas.fr, maurice.libes@osupytheas.fr, didier.mallarino@osupytheas.fr
Project:EMSO http://www.emso-fr.org/EMSO-France
Depth: 2436.0 m
Title:EMSO Ligure Ouest : Data MII capteur MICROCAT
DateTime_Computer,Latitude,Longitude,Temperature,Conductivity,Pressure,DateTime_Instrument
DateTime_Computer,Latitude,Longitude,degC,S m-1,dbar,DateTime_Instrument
2023-09-06T00:01:30Z,42.805,6.029,13.3085,4.60120,2470.81,2023-9-06T02:03:51Z
2023-09-06T00:04:33Z,42.805,6.029,13.3082,4.60162,2470.787,2023-9-06T02:06:54Z
2023-09-06T00:07:36Z,42.805,6.029,13.3091,4.60183,2470.787,2023-9-06T02:09:58Z
2023-09-06T00:10:39Z,42.805,6.029,13.3089,4.60198,2470.81,2023-9-06T02:13:01Z
2023-09-06T00:13:42Z,42.805,6.029,13.3096,4.60117,2470.787,2023-9-06T02:16:04Z
2023-09-06T00:16:46Z,42.805,6.029,13.3072,4.60137,2470.81,2023-9-06T02:19:07Z
2023-09-06T00:19:49Z,42.805,6.029,13.3082,4.60175,2470.763,2023-9-06T02:22:10Z
2023-09-06T00:22:52Z,42.805,6.029,13.3100,4.60190,2470.777,2023-9-06T02:25:13Z
2023-09-06T00:25:55Z,42.805,6.029,13.3093,4.60211,2470.763,2023-9-06T02:28:16Z
2023-09-06T00:28:58Z,42.805,6.029,13.3118,4.60169,2470.81,2023-9-06T02:31:19Z
2023-09-06T00:32:01Z,42.805,6.029,13.3104,4.60178,2470.8,2023-9-06T02:34:22Z
2023-09-06T00:35:04Z,42.805,6.029,13.3061,4.60175,2470.787,2023-9-06T02:37:25Z
2023-09-06T00:38:07Z,42.805,6.029,13.3082,4.60184,2470.787,2023-9-06T02:40:28Z
2023-09-06T00:41:10Z,42.805,6.029,13.3099,4.60178,2470.8,2023-9-06T02:43:31Z
2023-09-06T00:44:13Z,42.805,6.029,13.3115,4.60152,2470.763,2023-9-06T02:46:34Z
2023-09-06T00:47:16Z,42.805,6.029,13.3091,4.60182,2470.787,2023-9-06T02:49:38Z
2023-09-06T00:50:19Z,42.805,6.029,13.3100,4.60166,2470.754,2023-9-06T02:52:41Z
2023-09-06T00:53:22Z,42.805,6.029,13.3079,4.60188,2470.763,2023-9-06T02:55:44Z
2023-09-06T00:56:26Z,42.805,6.029,13.3101,4.60142,2470.763,2023-9-06T02:58:47Z
2023-09-06T00:59:29Z,42.805,6.029,13.3100,4.60161,2470.763,2023-9-06T03:01:50Z
2023-09-06T01:02:32Z,42.805,6.029,13.3062,4.60163,2470.777,2023-9-06T03:04:53Z
2023-09-06T01:05:35Z,42.805,6.029,13.3096,4.60150,2470.81,2023-9-06T03:07:56Z
2023-09-06T01:08:38Z,42.805,6.029,13.3069,4.60146,2470.787,2023-9-06T03:10:59Z
2023-09-06T01:11:41Z,42.805,6.029,13.3085,4.60128,2470.754,2023-9-06T03:14:02Z
2023-09-06T01:14:44Z,42.805,6.029,13.3054,4.60142,2470.777,2023-9-06T03:17:05Z
2023-09-06T01:17:47Z,42.805,6.029,13.3066,4.60188,2470.754,2023-9-06T03:20:08Z
2023-09-06T01:20:50Z,42.805,6.029,13.3057,4.60200,2470.777,2023-9-06T03:23:11Z
2023-09-06T01:23:53Z,42.805,6.029,13.3075,4.60132,2470.74,2023-9-06T03:26:14Z
2023-09-06T01:26:56Z,42.805,6.029,13.3084,4.60168,2470.763,2023-9-06T03:29:18Z
2023-09-06T01:29:59Z,42.805,6.029,13.3098,4.60170,2470.777,2023-9-06T03:32:21Z
2023-09-06T01:33:02Z,42.805,6.029,13.3086,4.60169,2470.763,2023-9-06T03:35:24Z
2023-09-06T01:36:06Z,42.805,6.029,13.3064,4.60150,2470.763,2023-9-06T03:38:27Z
2023-09-06T01:39:09Z,42.805,6.029,13.3067,4.60145,2470.763,2023-9-06T03:41:30Z
2023-09-06T01:42:12Z,42.805,6.029,13.3071,4.60190,2470.74,2023-9-06T03:44:33Z
2023-09-06T01:45:15Z,42.805,6.029,13.3082,4.60188,2470.754,2023-9-06T03:47:36Z
2023-09-06T01:48:18Z,42.805,6.029,13.3092,4.60186,2470.74,2023-9-06T03:50:39Z
2023-09-06T01:51:21Z,42.805,6.029,13.3064,4.60135,2470.763,2023-9-06T03:53:42Z
2023-09-06T01:54:24Z,42.805,6.029,13.3049,4.60134,2470.777,2023-9-06T03:56:45Z
2023-09-06T01:57:27Z,42.805,6.029,13.3062,4.60142,2470.787,2023-9-06T03:59:48Z
2023-09-06T02:00:30Z,42.805,6.029,13.3054,4.60193,2470.777,2023-9-06T04:02:51Z
2023-09-06T02:03:33Z,42.805,6.029,13.3064,4.60164,2470.763,2023-9-06T04:05:54Z
2023-09-06T02:06:36Z,42.805,6.029,13.3067,4.60181,2470.8,2023-9-06T04:08:58Z
2023-09-06T02:09:39Z,42.805,6.029,13.3063,4.60167,2470.777,2023-9-06T04:12:01Z
2023-09-06T02:12:42Z,42.805,6.029,13.3061,4.60165,2470.777,2023-9-06T04:15:04Z
2023-09-06T02:15:46Z,42.805,6.029,13.3073,4.60286,2470.787,2023-9-06T04:18:07Z
2023-09-06T02:18:49Z,42.805,6.029,13.3061,4.60133,2470.777,2023-9-06T04:21:10Z
2023-09-06T02:21:52Z,42.805,6.029,13.3049,4.60140,2470.74,2023-9-06T04:24:13Z
2023-09-06T02:24:55Z,42.805,6.029,13.3048,4.60164,2470.763,2023-9-06T04:27:16Z
2023-09-06T02:27:58Z,42.805,6.029,13.3049,4.60170,2470.777,2023-9-06T04:30:19Z
2023-09-06T02:31:01Z,42.805,6.029,13.3059,4.60201,2470.763,2023-9-06T04:33:22Z
2023-09-06T02:34:04Z,42.805,6.029,13.3067,4.60155,2470.777,2023-9-06T04:36:25Z
2023-09-06T02:37:07Z,42.805,6.029,13.3069,4.60169,2470.754,2023-9-06T04:39:28Z
2023-09-06T02:40:10Z,42.805,6.029,13.3067,4.60173,2470.754,2023-9-06T04:42:31Z
2023-09-06T02:43:13Z,42.805,6.029,13.3056,4.60128,2470.754,2023-9-06T04:45:34Z
2023-09-06T02:46:16Z,42.805,6.029,13.3069,4.60155,2470.763,2023-9-06T04:48:38Z
2023-09-06T02:49:19Z,42.805,6.029,13.3074,4.60150,2470.763,2023-9-06T04:51:41Z
2023-09-06T02:52:23Z,42.805,6.029,13.3074,4.60146,2470.754,2023-9-06T04:54:44Z
2023-09-06T02:55:26Z,42.805,6.029,13.3084,4.60180,2470.754,2023-9-06T04:57:47Z
2023-09-06T02:58:29Z,42.805,6.029,13.3059,4.60162,2470.754,2023-9-06T05:00:50Z
2023-09-06T03:01:32Z,42.805,6.029,13.3080,4.60181,2470.74,2023-9-06T05:03:53Z
2023-09-06T03:04:35Z,42.805,6.029,13.3085,4.60185,2470.717,2023-9-06T05:06:56Z
2023-09-06T03:07:38Z,42.805,6.029,13.3071,4.60158,2470.754,2023-9-06T05:09:59Z
2023-09-06T03:10:41Z,42.805,6.029,13.3089,4.60203,2470.74,2023-9-06T05:13:02Z
2023-09-06T03:13:44Z,42.805,6.029,13.3087,4.60150,2470.73,2023-9-06T05:16:05Z
2023-09-06T03:16:47Z,42.805,6.029,13.3089,4.60190,2470.777,2023-9-06T05:19:08Z
2023-09-06T03:19:50Z,42.805,6.029,13.3099,4.60182,2470.74,2023-9-06T05:22:11Z
2023-09-06T03:22:53Z,42.805,6.029,13.3106,4.60144,2470.73,2023-9-06T05:25:14Z
2023-09-06T03:25:56Z,42.805,6.029,13.3097,4.60186,2470.73,2023-9-06T05:28:17Z
2023-09-06T03:28:59Z,42.805,6.029,13.3086,4.60170,2470.74,2023-9-06T05:31:21Z
2023-09-06T03:32:02Z,42.805,6.029,13.3076,4.60168,2470.717,2023-9-06T05:34:24Z
2023-09-06T03:35:06Z,42.805,6.029,13.3098,4.60167,2470.73,2023-9-06T05:37:27Z
2023-09-06T03:38:09Z,42.805,6.029,13.3078,4.60152,2470.717,2023-9-06T05:40:30Z
2023-09-06T03:41:12Z,42.805,6.029,13.3074,4.60183,2470.717,2023-9-06T05:43:33Z
2023-09-06T03:44:15Z,42.805,6.029,13.3094,4.60144,2470.73,2023-9-06T05:46:36Z
2023-09-06T03:47:18Z,42.805,6.029,13.3091,4.60170,2470.717,2023-9-06T05:49:39Z
2023-09-06T03:50:21Z,42.805,6.029,13.3076,4.60157,2470.754,2023-9-06T05:52:42Z
2023-09-06T03:53:24Z,42.805,6.029,13.3078,4.60149,2470.693,2023-9-06T05:55:45Z
2023-09-06T03:56:27Z,42.805,6.029,13.3082,4.60141,2470.754,2023-9-06T05:58:48Z
2023-09-06T03:59:30Z,42.805,6.029,13.3075,4.60152,2470.73,2023-9-06T06:01:51Z
2023-09-06T04:02:33Z,42.805,6.029,13.3058,4.60125,2470.754,2023-9-06T06:04:54Z
2023-09-06T04:05:36Z,42.805,6.029,13.3077,4.60125,2470.693,2023-9-06T06:07:58Z
2023-09-06T04:08:39Z,42.805,6.029,13.3066,4.60102,2470.754,2023-9-06T06:11:01Z
2023-09-06T04:11:42Z,42.805,6.029,13.3043,4.60121,2470.73,2023-9-06T06:14:04Z
2023-09-06T04:14:46Z,42.805,6.029,13.3053,4.60133,2470.707,2023-9-06T06:17:07Z
2023-09-06T04:17:49Z,42.805,6.029,13.3049,4.60120,2470.717,2023-9-06T06:20:10Z
2023-09-06T04:20:52Z,42.805,6.029,13.3058,4.60099,2470.717,2023-9-06T06:23:13Z
2023-09-06T04:23:55Z,42.805,6.029,13.3036,4.60101,2470.73,2023-9-06T06:26:16Z
2023-09-06T04:26:58Z,42.805,6.029,13.3034,4.60104,2470.717,2023-9-06T06:29:19Z
2023-09-06T04:30:01Z,42.805,6.029,13.3034,4.60096,2470.693,2023-9-06T06:32:22Z
2023-09-06T04:33:04Z,42.805,6.029,13.3039,4.60105,2470.717,2023-9-06T06:35:26Z
2023-09-06T04:36:08Z,42.805,6.029,13.3053,4.60102,2470.707,2023-9-06T06:38:29Z
2023-09-06T04:39:11Z,42.805,6.029,13.3035,4.60102,2470.717,2023-9-06T06:41:32Z
2023-09-06T04:42:14Z,42.805,6.029,13.3034,4.60113,2470.73,2023-9-06T06:44:35Z
2023-09-06T04:45:17Z,42.805,6.029,13.3031,4.60106,2470.693,2023-9-06T06:47:38Z
2023-09-06T04:48:20Z,42.805,6.029,13.3032,4.60102,2470.693,2023-9-06T06:50:41Z
2023-09-06T04:51:23Z,42.805,6.029,13.3032,4.60104,2470.707,2023-9-06T06:53:44Z
2023-09-06T04:54:26Z,42.805,6.029,13.3041,4.60107,2470.693,2023-9-06T06:56:47Z
2023-09-06T04:57:29Z,42.805,6.029,13.3039,4.60111,2470.717,2023-9-06T06:59:50Z
2023-09-06T05:00:32Z,42.805,6.029,13.3072,4.60129,2470.693,2023-9-06T07:02:53Z
2023-09-06T05:03:35Z,42.805,6.029,13.3076,4.60138,2470.693,2023-9-06T07:05:56Z
2023-09-06T05:06:38Z,42.805,6.029,13.3053,4.60111,2470.717,2023-9-06T07:08:59Z
2023-09-06T05:09:41Z,42.805,6.029,13.3049,4.60110,2470.707,2023-9-06T07:12:03Z
2023-09-06T05:12:44Z,42.805,6.029,13.3029,4.60103,2470.717,2023-9-06T07:15:06Z
2023-09-06T05:15:48Z,42.805,6.029,13.3033,4.60102,2470.73,2023-9-06T07:18:09Z
2023-09-06T05:18:51Z,42.805,6.029,13.3030,4.60103,2470.717,2023-9-06T07:21:12Z
2023-09-06T05:21:54Z,42.805,6.029,13.3031,4.60102,2470.717,2023-9-06T07:24:15Z
2023-09-06T05:24:57Z,42.805,6.029,13.3034,4.60099,2470.684,2023-9-06T07:27:18Z
2023-09-06T05:28:00Z,42.805,6.029,13.3032,4.60102,2470.693,2023-9-06T07:30:21Z
2023-09-06T05:31:03Z,42.805,6.029,13.3032,4.60101,2470.717,2023-9-06T07:33:24Z
2023-09-06T05:34:06Z,42.805,6.029,13.3029,4.60099,2470.693,2023-9-06T07:36:27Z
2023-09-06T05:37:09Z,42.805,6.029,13.3029,4.60097,2470.693,2023-9-06T07:39:30Z
2023-09-06T05:40:12Z,42.805,6.029,13.3032,4.60096,2470.693,2023-9-06T07:42:33Z
2023-09-06T05:43:15Z,42.805,6.029,13.3030,4.60099,2470.74,2023-9-06T07:45:36Z
2023-09-06T05:46:18Z,42.805,6.029,13.3034,4.60099,2470.717,2023-9-06T07:48:39Z
2023-09-06T05:49:21Z,42.805,6.029,13.3029,4.60099,2470.693,2023-9-06T07:51:43Z
2023-09-06T05:52:24Z,42.805,6.029,13.3030,4.60101,2470.717,2023-9-06T07:54:46Z
2023-09-06T05:55:28Z,42.805,6.029,13.3029,4.60099,2470.684,2023-9-06T07:57:49Z
2023-09-06T05:58:31Z,42.805,6.029,13.3029,4.60101,2470.693,2023-9-06T08:00:52Z
2023-09-06T06:01:34Z,42.805,6.029,13.3031,4.60099,2470.707,2023-9-06T08:03:55Z
2023-09-06T06:04:37Z,42.805,6.029,13.3027,4.60097,2470.633,2023-9-06T08:06:58Z
2023-09-06T06:07:40Z,42.805,6.029,13.3030,4.60096,2470.693,2023-9-06T08:10:01Z
2023-09-06T06:10:43Z,42.805,6.029,13.3030,4.60097,2470.707,2023-9-06T08:13:04Z
2023-09-06T06:13:46Z,42.805,6.029,13.3033,4.60098,2470.73,2023-9-06T08:16:07Z
2023-09-06T06:16:49Z,42.805,6.029,13.3031,4.60099,2470.717,2023-9-06T08:19:10Z
2023-09-06T06:19:52Z,42.805,6.029,13.3034,4.60102,2470.693,2023-9-06T08:22:13Z
2023-09-06T06:22:55Z,42.805,6.029,13.3028,4.60098,2470.693,2023-9-06T08:25:16Z
2023-09-06T06:25:58Z,42.805,6.029,13.3032,4.60095,2470.707,2023-9-06T08:28:19Z
2023-09-06T06:29:01Z,42.805,6.029,13.3031,4.60099,2470.684,2023-9-06T08:31:23Z
2023-09-06T06:32:04Z,42.805,6.029,13.3033,4.60098,2470.717,2023-9-06T08:34:26Z
2023-09-06T06:35:07Z,42.805,6.029,13.3034,4.60098,2470.693,2023-9-06T08:37:29Z
2023-09-06T06:38:11Z,42.805,6.029,13.3041,4.60099,2470.693,2023-9-06T08:40:32Z
2023-09-06T06:41:14Z,42.805,6.029,13.3038,4.60101,2470.693,2023-9-06T08:43:35Z
2023-09-06T06:44:17Z,42.805,6.029,13.3041,4.60110,2470.717,2023-9-06T08:46:38Z
2023-09-06T06:47:20Z,42.805,6.029,13.3033,4.60098,2470.717,2023-9-06T08:49:41Z
2023-09-06T06:50:23Z,42.805,6.029,13.3033,4.60099,2470.693,2023-9-06T08:52:44Z
2023-09-06T06:53:26Z,42.805,6.029,13.3041,4.60095,2470.693,2023-9-06T08:55:47Z
2023-09-06T06:56:29Z,42.805,6.029,13.3045,4.60114,2470.73,2023-9-06T08:58:50Z
2023-09-06T06:59:32Z,42.805,6.029,13.3039,4.60107,2470.73,2023-9-06T09:01:53Z
2023-09-06T07:02:35Z,42.805,6.029,13.3041,4.60111,2470.717,2023-9-06T09:04:56Z
2023-09-06T07:05:38Z,42.805,6.029,13.3051,4.60106,2470.717,2023-9-06T09:07:59Z
2023-09-06T07:08:41Z,42.805,6.029,13.3039,4.60109,2470.707,2023-9-06T09:11:03Z
2023-09-06T07:11:44Z,42.805,6.029,13.3042,4.60121,2470.717,2023-9-06T09:14:06Z
2023-09-06T07:14:47Z,42.805,6.029,13.3040,4.60111,2470.693,2023-9-06T09:17:09Z
2023-09-06T07:17:51Z,42.805,6.029,13.3052,4.60118,2470.717,2023-9-06T09:20:12Z
2023-09-06T07:20:54Z,42.805,6.029,13.3038,4.60096,2470.693,2023-9-06T09:23:15Z
2023-09-06T07:23:57Z,42.805,6.029,13.3034,4.60111,2470.73,2023-9-06T09:26:18Z
2023-09-06T07:27:00Z,42.805,6.029,13.3051,4.60117,2470.74,2023-9-06T09:29:21Z
2023-09-06T07:30:03Z,42.805,6.029,13.3036,4.60103,2470.717,2023-9-06T09:32:24Z
2023-09-06T07:33:06Z,42.805,6.029,13.3050,4.60100,2470.777,2023-9-06T09:35:27Z
2023-09-06T07:36:09Z,42.805,6.029,13.3043,4.60108,2470.73,2023-9-06T09:38:30Z
2023-09-06T07:39:12Z,42.805,6.029,13.3048,4.60108,2470.73,2023-9-06T09:41:33Z
2023-09-06T07:42:15Z,42.805,6.029,13.3054,4.60108,2470.754,2023-9-06T09:44:36Z
2023-09-06T07:45:18Z,42.805,6.029,13.3043,4.60119,2470.74,2023-9-06T09:47:39Z
2023-09-06T07:48:21Z,42.805,6.029,13.3039,4.60128,2470.73,2023-9-06T09:50:43Z
2023-09-06T07:51:24Z,42.805,6.029,13.3048,4.60098,2470.707,2023-9-06T09:53:46Z
2023-09-06T07:54:27Z,42.805,6.029,13.3041,4.60102,2470.73,2023-9-06T09:56:49Z
2023-09-06T07:57:31Z,42.805,6.029,13.3037,4.60096,2470.73,2023-9-06T09:59:52Z
2023-09-06T08:00:34Z,42.805,6.029,13.3038,4.60105,2470.74,2023-9-06T10:02:55Z
2023-09-06T08:03:37Z,42.805,6.029,13.3049,4.60119,2470.74,2023-9-06T10:05:58Z
2023-09-06T08:06:40Z,42.805,6.029,13.3044,4.60110,2470.763,2023-9-06T10:09:01Z
2023-09-06T08:09:43Z,42.805,6.029,13.3048,4.60125,2470.717,2023-9-06T10:12:04Z
2023-09-06T08:12:46Z,42.805,6.029,13.3050,4.60141,2470.74,2023-9-06T10:15:07Z
2023-09-06T08:15:49Z,42.805,6.029,13.3043,4.60127,2470.754,2023-9-06T10:18:10Z
2023-09-06T08:18:52Z,42.805,6.029,13.3041,4.60127,2470.74,2023-9-06T10:21:13Z
2023-09-06T08:21:55Z,42.805,6.029,13.3043,4.60142,2470.74,2023-9-06T10:24:16Z
2023-09-06T08:24:58Z,42.805,6.029,13.3043,4.60125,2470.763,2023-9-06T10:27:19Z
2023-09-06T08:28:01Z,42.805,6.029,13.3049,4.60133,2470.754,2023-9-06T10:30:23Z
2023-09-06T08:31:03Z,42.805,6.029,13.3038,4.60119,2470.74,2023-9-06T10:33:24Z
2023-09-06T08:34:06Z,42.805,6.029,13.3044,4.60125,2470.74,2023-9-06T10:36:27Z
2023-09-06T08:37:09Z,42.805,6.029,13.3042,4.60122,2470.8,2023-9-06T10:39:30Z
2023-09-06T08:40:12Z,42.805,6.029,13.3041,4.60121,2470.787,2023-9-06T10:42:33Z
2023-09-06T08:43:15Z,42.805,6.029,13.3041,4.60126,2470.763,2023-9-06T10:45:36Z
2023-09-06T08:46:18Z,42.805,6.029,13.3037,4.60114,2470.777,2023-9-06T10:48:39Z
2023-09-06T08:49:21Z,42.805,6.029,13.3040,4.60121,2470.763,2023-9-06T10:51:42Z
2023-09-06T08:52:24Z,42.805,6.029,13.3039,4.60142,2470.8,2023-9-06T10:54:46Z
2023-09-06T08:55:27Z,42.805,6.029,13.3042,4.60131,2470.787,2023-9-06T10:57:49Z
2023-09-06T08:58:31Z,42.805,6.029,13.3047,4.60129,2470.8,2023-9-06T11:00:52Z
2023-09-06T09:01:34Z,42.805,6.029,13.3038,4.60122,2470.8,2023-9-06T11:03:55Z
2023-09-06T09:04:37Z,42.805,6.029,13.3043,4.60144,2470.763,2023-9-06T11:06:58Z
2023-09-06T09:07:40Z,42.805,6.029,13.3041,4.60132,2470.787,2023-9-06T11:10:01Z
2023-09-06T09:10:43Z,42.805,6.029,13.3043,4.60120,2470.81,2023-9-06T11:13:04Z
2023-09-06T09:13:46Z,42.805,6.029,13.3050,4.60125,2470.8,2023-9-06T11:16:07Z
2023-09-06T09:16:49Z,42.805,6.029,13.3043,4.60119,2470.763,2023-9-06T11:19:10Z
2023-09-06T09:19:52Z,42.805,6.029,13.3036,4.60114,2470.787,2023-9-06T11:22:13Z
2023-09-06T09:22:55Z,42.805,6.029,13.3042,4.60115,2470.824,2023-9-06T11:25:16Z
2023-09-06T09:25:58Z,42.805,6.029,13.3040,4.60128,2470.787,2023-9-06T11:28:19Z
2023-09-06T09:29:01Z,42.805,6.029,13.3034,4.60108,2470.81,2023-9-06T11:31:22Z
2023-09-06T09:32:04Z,42.805,6.029,13.3033,4.60109,2470.787,2023-9-06T11:34:26Z
2023-09-06T09:35:07Z,42.805,6.029,13.3039,4.60107,2470.787,2023-9-06T11:37:29Z
2023-09-06T09:38:11Z,42.805,6.029,13.3034,4.60109,2470.787,2023-9-06T11:40:32Z
2023-09-06T09:41:14Z,42.805,6.029,13.3033,4.60112,2470.824,2023-9-06T11:43:35Z
2023-09-06T09:44:17Z,42.805,6.029,13.3031,4.60107,2470.833,2023-9-06T11:46:38Z
2023-09-06T09:47:20Z,42.805,6.029,13.3035,4.60114,2470.81,2023-9-06T11:49:41Z
2023-09-06T09:50:23Z,42.805,6.029,13.3032,4.60119,2470.787,2023-9-06T11:52:44Z
2023-09-06T09:53:26Z,42.805,6.029,13.3030,4.60115,2470.833,2023-9-06T11:55:47Z
2023-09-06T09:56:29Z,42.805,6.029,13.3031,4.60104,2470.81,2023-9-06T11:58:50Z
2023-09-06T09:59:32Z,42.805,6.029,13.3033,4.60112,2470.857,2023-9-06T12:01:53Z
2023-09-06T10:02:35Z,42.805,6.029,13.3031,4.60114,2470.847,2023-9-06T12:04:56Z
2023-09-06T10:05:38Z,42.805,6.029,13.3034,4.60105,2470.787,2023-9-06T12:08:00Z
2023-09-06T10:08:41Z,42.805,6.029,13.3040,4.60119,2470.81,2023-9-06T12:11:03Z
2023-09-06T10:11:44Z,42.805,6.029,13.3032,4.60114,2470.81,2023-9-06T12:14:06Z
2023-09-06T10:14:48Z,42.805,6.029,13.3038,4.60110,2470.81,2023-9-06T12:17:09Z
2023-09-06T10:17:51Z,42.805,6.029,13.3033,4.60122,2470.8,2023-9-06T12:20:12Z
2023-09-06T10:20:54Z,42.805,6.029,13.3036,4.60117,2470.833,2023-9-06T12:23:15Z
2023-09-06T10:23:57Z,42.805,6.029,13.3036,4.60113,2470.824,2023-9-06T12:26:18Z
2023-09-06T10:27:00Z,42.805,6.029,13.3033,4.60111,2470.824,2023-9-06T12:29:21Z
2023-09-06T10:30:03Z,42.805,6.029,13.3039,4.60129,2470.857,2023-9-06T12:32:24Z
2023-09-06T10:33:06Z,42.805,6.029,13.3030,4.60104,2470.81,2023-9-06T12:35:27Z
2023-09-06T10:36:09Z,42.805,6.029,13.3034,4.60110,2470.81,2023-9-06T12:38:30Z
2023-09-06T10:39:12Z,42.805,6.029,13.3036,4.60110,2470.847,2023-9-06T12:41:33Z
2023-09-06T10:42:15Z,42.805,6.029,13.3040,4.60119,2470.847,2023-9-06T12:44:36Z
2023-09-06T10:45:18Z,42.805,6.029,13.3038,4.60125,2470.81,2023-9-06T12:47:40Z
2023-09-06T10:48:21Z,42.805,6.029,13.3033,4.60112,2470.833,2023-9-06T12:50:43Z
2023-09-06T10:51:25Z,42.805,6.029,13.3034,4.60128,2470.81,2023-9-06T12:53:46Z
2023-09-06T10:54:28Z,42.805,6.029,13.3032,4.60122,2470.833,2023-9-06T12:56:49Z
2023-09-06T10:57:31Z,42.805,6.029,13.3033,4.60117,2470.824,2023-9-06T12:59:52Z
2023-09-06T11:00:34Z,42.805,6.029,13.3033,4.60107,2470.81,2023-9-06T13:02:55Z
2023-09-06T11:03:37Z,42.805,6.029,13.3031,4.60114,2470.857,2023-9-06T13:05:58Z
2023-09-06T11:06:40Z,42.805,6.029,13.3041,4.60125,2470.833,2023-9-06T13:09:01Z
2023-09-06T11:09:43Z,42.805,6.029,13.3033,4.60107,2470.833,2023-9-06T13:12:04Z
2023-09-06T11:12:46Z,42.805,6.029,13.3029,4.60103,2470.824,2023-9-06T13:15:07Z
2023-09-06T11:15:49Z,42.805,6.029,13.3035,4.60127,2470.847,2023-9-06T13:18:10Z
2023-09-06T11:18:52Z,42.805,6.029,13.3032,4.60115,2470.833,2023-9-06T13:21:13Z
2023-09-06T11:21:55Z,42.805,6.029,13.3030,4.60104,2470.81,2023-9-06T13:24:17Z
2023-09-06T11:24:58Z,42.805,6.029,13.3029,4.60109,2470.81,2023-9-06T13:27:20Z
2023-09-06T11:28:01Z,42.805,6.029,13.3031,4.60111,2470.824,2023-9-06T13:30:23Z
2023-09-06T11:31:05Z,42.805,6.029,13.3045,4.60130,2470.833,2023-9-06T13:33:26Z
2023-09-06T11:34:08Z,42.805,6.029,13.3036,4.60119,2470.833,2023-9-06T13:36:29Z
2023-09-06T11:37:11Z,42.805,6.029,13.3037,4.60117,2470.81,2023-9-06T13:39:32Z
2023-09-06T11:40:14Z,42.805,6.029,13.3034,4.60135,2470.824,2023-9-06T13:42:35Z
2023-09-06T11:43:17Z,42.805,6.029,13.3034,4.60114,2470.8,2023-9-06T13:45:38Z
2023-09-06T11:46:20Z,42.805,6.029,13.3031,4.60108,2470.833,2023-9-06T13:48:41Z
2023-09-06T11:49:23Z,42.805,6.029,13.3038,4.60110,2470.8,2023-9-06T13:51:44Z
2023-09-06T11:52:26Z,42.805,6.029,13.3036,4.60110,2470.787,2023-9-06T13:54:47Z
2023-09-06T11:55:29Z,42.805,6.029,13.3033,4.60122,2470.81,2023-9-06T13:57:50Z
2023-09-06T11:58:32Z,42.805,6.029,13.3034,4.60106,2470.81,2023-9-06T14:00:53Z
2023-09-06T12:01:35Z,42.805,6.029,13.3029,4.60126,2470.824,2023-9-06T14:03:57Z
2023-09-06T12:04:38Z,42.805,6.029,13.3033,4.60128,2470.833,2023-9-06T14:07:00Z
2023-09-06T12:07:42Z,42.805,6.029,13.3041,4.60137,2470.824,2023-9-06T14:10:03Z
2023-09-06T12:10:45Z,42.805,6.029,13.3039,4.60121,2470.81,2023-9-06T14:13:06Z
2023-09-06T12:13:48Z,42.805,6.029,13.3048,4.60145,2470.81,2023-9-06T14:16:09Z
2023-09-06T12:16:51Z,42.805,6.029,13.3043,4.60129,2470.81,2023-9-06T14:19:12Z
2023-09-06T12:19:54Z,42.805,6.029,13.3037,4.60135,2470.81,2023-9-06T14:22:15Z
2023-09-06T12:22:57Z,42.805,6.029,13.3031,4.60107,2470.833,2023-9-06T14:25:18Z
2023-09-06T12:26:00Z,42.805,6.029,13.3034,4.60113,2470.847,2023-9-06T14:28:21Z
2023-09-06T12:29:03Z,42.805,6.029,13.3030,4.60128,2470.81,2023-9-06T14:31:24Z
2023-09-06T12:32:06Z,42.805,6.029,13.3039,4.60129,2470.833,2023-9-06T14:34:27Z
2023-09-06T12:35:09Z,42.805,6.029,13.3041,4.60125,2470.787,2023-9-06T14:37:30Z
2023-09-06T12:38:12Z,42.805,6.029,13.3037,4.60122,2470.81,2023-9-06T14:40:34Z
2023-09-06T12:41:15Z,42.805,6.029,13.3041,4.60119,2470.81,2023-9-06T14:43:37Z
2023-09-06T12:44:18Z,42.805,6.029,13.3035,4.60132,2470.824,2023-9-06T14:46:40Z
2023-09-06T12:47:22Z,42.805,6.029,13.3041,4.60123,2470.787,2023-9-06T14:49:43Z
2023-09-06T12:50:25Z,42.805,6.029,13.3034,4.60123,2470.824,2023-9-06T14:52:46Z
2023-09-06T12:53:28Z,42.805,6.029,13.3039,4.60125,2470.787,2023-9-06T14:55:49Z
2023-09-06T12:56:31Z,42.805,6.029,13.3041,4.60113,2470.773,2023-9-06T14:58:52Z
2023-09-06T12:59:34Z,42.805,6.029,13.3042,4.60141,2470.833,2023-9-06T15:01:55Z
2023-09-06T13:02:37Z,42.805,6.029,13.3043,4.60143,2470.824,2023-9-06T15:04:58Z
2023-09-06T13:05:40Z,42.805,6.029,13.3040,4.60122,2470.857,2023-9-06T15:08:01Z
2023-09-06T13:08:43Z,42.805,6.029,13.3035,4.60129,2470.81,2023-9-06T15:11:04Z
2023-09-06T13:11:46Z,42.805,6.029,13.3040,4.60132,2470.81,2023-9-06T15:14:07Z
2023-09-06T13:14:49Z,42.805,6.029,13.3044,4.60125,2470.8,2023-9-06T15:17:10Z
2023-09-06T13:17:52Z,42.805,6.029,13.3034,4.60119,2470.824,2023-9-06T15:20:14Z
2023-09-06T13:20:55Z,42.805,6.029,13.3036,4.60132,2470.796,2023-9-06T15:23:17Z
2023-09-06T13:23:59Z,42.805,6.029,13.3040,4.60137,2470.824,2023-9-06T15:26:20Z
2023-09-06T13:27:02Z,42.805,6.029,13.3042,4.60125,2470.833,2023-9-06T15:29:23Z
2023-09-06T13:30:05Z,42.805,6.029,13.3039,4.60127,2470.81,2023-9-06T15:32:26Z
2023-09-06T13:33:08Z,42.805,6.029,13.3039,4.60123,2470.81,2023-9-06T15:35:29Z
2023-09-06T13:36:11Z,42.805,6.029,13.3041,4.60121,2470.81,2023-9-06T15:38:32Z
2023-09-06T13:39:14Z,42.805,6.029,13.3046,4.60120,2470.773,2023-9-06T15:41:35Z
2023-09-06T13:42:17Z,42.805,6.029,13.3040,4.60126,2470.796,2023-9-06T15:44:38Z
2023-09-06T13:45:20Z,42.805,6.029,13.3045,4.60127,2470.8,2023-9-06T15:47:41Z
2023-09-06T13:48:23Z,42.805,6.029,13.3043,4.60125,2470.8,2023-9-06T15:50:44Z
2023-09-06T13:51:26Z,42.805,6.029,13.3041,4.60120,2470.824,2023-9-06T15:53:47Z
2023-09-06T13:54:29Z,42.805,6.029,13.3036,4.60125,2470.787,2023-9-06T15:56:51Z
2023-09-06T13:57:32Z,42.805,6.029,13.3037,4.60121,2470.824,2023-9-06T15:59:54Z
2023-09-06T14:00:35Z,42.805,6.029,13.3051,4.60133,2470.8,2023-9-06T16:02:57Z
2023-09-06T14:03:39Z,42.805,6.029,13.3035,4.60120,2470.81,2023-9-06T16:06:00Z
2023-09-06T14:06:42Z,42.805,6.029,13.3035,4.60121,2470.824,2023-9-06T16:09:03Z
2023-09-06T14:09:45Z,42.805,6.029,13.3044,4.60127,2470.763,2023-9-06T16:12:06Z
2023-09-06T14:12:48Z,42.805,6.029,13.3043,4.60132,2470.824,2023-9-06T16:15:09Z
2023-09-06T14:15:51Z,42.805,6.029,13.3039,4.60120,2470.787,2023-9-06T16:18:12Z
2023-09-06T14:18:54Z,42.805,6.029,13.3033,4.60111,2470.81,2023-9-06T16:21:15Z
2023-09-06T14:21:57Z,42.805,6.029,13.3040,4.60112,2470.8,2023-9-06T16:24:18Z
2023-09-06T14:25:00Z,42.805,6.029,13.3046,4.60119,2470.8,2023-9-06T16:27:21Z
2023-09-06T14:28:03Z,42.805,6.029,13.3049,4.60140,2470.787,2023-9-06T16:30:24Z
2023-09-06T14:31:07Z,42.805,6.029,13.3046,4.60131,2470.787,2023-9-06T16:33:28Z
2023-09-06T14:34:10Z,42.805,6.029,13.3048,4.60125,2470.81,2023-9-06T16:36:31Z
2023-09-06T14:37:13Z,42.805,6.029,13.3042,4.60140,2470.787,2023-9-06T16:39:34Z
2023-09-06T14:40:16Z,42.805,6.029,13.3045,4.60140,2470.81,2023-9-06T16:42:37Z
2023-09-06T14:43:19Z,42.805,6.029,13.3043,4.60134,2470.777,2023-9-06T16:45:41Z
2023-09-06T14:46:22Z,42.805,6.029,13.3048,4.60119,2470.787,2023-9-06T16:48:44Z
2023-09-06T14:49:25Z,42.805,6.029,13.3047,4.60131,2470.81,2023-9-06T16:51:47Z
2023-09-06T14:52:29Z,42.805,6.029,13.3041,4.60143,2470.787,2023-9-06T16:54:50Z
2023-09-06T14:55:32Z,42.805,6.029,13.3041,4.60125,2470.81,2023-9-06T16:57:53Z
2023-09-06T14:58:35Z,42.805,6.029,13.3037,4.60126,2470.81,2023-9-06T17:00:56Z
2023-09-06T15:01:38Z,42.805,6.029,13.3044,4.60122,2470.787,2023-9-06T17:03:59Z
2023-09-06T15:04:41Z,42.805,6.029,13.3050,4.60140,2470.787,2023-9-06T17:07:02Z
2023-09-06T15:07:44Z,42.805,6.029,13.3043,4.60120,2470.777,2023-9-06T17:10:05Z
2023-09-06T15:10:47Z,42.805,6.029,13.3048,4.60136,2470.787,2023-9-06T17:13:08Z
2023-09-06T15:13:50Z,42.805,6.029,13.3040,4.60125,2470.777,2023-9-06T17:16:11Z